TimeCDT,TemperatureF,Dew PointF,Humidity,Sea Level PressureIn,VisibilityMPH,Wind Direction,Wind SpeedMPH,Gust SpeedMPH,PrecipitationIn,Events,Conditions,WindDirDegrees,DateUTC
12:15 AM,37.4,32.0,81,29.90,10.0,WSW,10.4,-,N/A,,Clear,250,2014-03-15 05:15:00
12:35 AM,37.4,32.0,81,29.90,10.0,WSW,10.4,-,N/A,,Clear,250,2014-03-15 05:35:00
12:55 AM,37.4,32.0,81,29.90,10.0,WSW,8.1,-,N/A,,Clear,250,2014-03-15 05:55:00
1:15 AM,35.6,32.0,87,29.90,10.0,WSW,9.2,-,N/A,,Clear,240,2014-03-15 06:15:00
1:35 AM,35.6,32.0,87,29.91,10.0,SW,9.2,-,N/A,,Clear,230,2014-03-15 06:35:00
1:55 AM,35.6,32.0,87,29.91,10.0,SW,10.4,-,N/A,,Clear,230,2014-03-15 06:55:00
2:15 AM,35.6,32.0,87,29.92,10.0,WSW,10.4,-,N/A,,Clear,240,2014-03-15 07:15:00
2:35 AM,35.6,32.0,87,29.92,10.0,WSW,10.4,-,N/A,,Clear,240,2014-03-15 07:35:00
2:55 AM,35.6,32.0,87,29.92,10.0,WSW,10.4,-,N/A,,Clear,250,2014-03-15 07:55:00
3:15 AM,35.6,32.0,87,29.92,10.0,WSW,10.4,-,N/A,,Clear,240,2014-03-15 08:15:00
3:35 AM,35.6,32.0,87,29.92,10.0,WSW,10.4,-,N/A,,Clear,250,2014-03-15 08:35:00
3:55 AM,35.6,32.0,87,29.93,10.0,West,10.4,-,N/A,,Clear,260,2014-03-15 08:55:00
4:15 AM,35.6,32.0,87,29.94,10.0,West,10.4,-,N/A,,Clear,260,2014-03-15 09:15:00
4:35 AM,35.6,32.0,87,29.94,10.0,West,10.4,-,N/A,,Clear,260,2014-03-15 09:35:00
4:55 AM,35.6,32.0,87,29.95,10.0,West,9.2,-,N/A,,Clear,270,2014-03-15 09:55:00
5:15 AM,35.6,32.0,87,29.95,10.0,West,8.1,-,N/A,,Clear,260,2014-03-15 10:15:00
5:35 AM,33.8,32.0,93,29.96,10.0,West,8.1,-,N/A,,Clear,270,2014-03-15 10:35:00
5:55 AM,33.8,32.0,93,29.97,10.0,West,8.1,-,N/A,,Clear,260,2014-03-15 10:55:00
6:15 AM,33.8,32.0,93,29.97,10.0,West,6.9,-,N/A,,Clear,260,2014-03-15 11:15:00
6:35 AM,33.8,32.0,93,29.99,10.0,West,6.9,-,N/A,,Clear,270,2014-03-15 11:35:00
6:55 AM,33.8,32.0,93,30.00,10.0,WSW,9.2,-,N/A,,Clear,240,2014-03-15 11:55:00
7:15 AM,32.0,32.0,100,30.01,10.0,West,5.8,-,N/A,,Clear,260,2014-03-15 12:15:00
7:35 AM,33.8,32.0,93,30.02,10.0,West,8.1,-,N/A,,Clear,270,2014-03-15 12:35:00
7:55 AM,33.8,32.0,93,30.03,10.0,West,6.9,-,N/A,,Clear,260,2014-03-15 12:55:00
8:15 AM,33.8,32.0,93,30.03,10.0,West,6.9,-,N/A,,Clear,280,2014-03-15 13:15:00
8:35 AM,35.6,32.0,87,30.04,10.0,NW,8.1,-,N/A,,Clear,310,2014-03-15 13:35:00
8:55 AM,35.6,32.0,87,30.05,10.0,NW,6.9,-,N/A,,Clear,310,2014-03-15 13:55:00
9:15 AM,35.6,32.0,87,30.06,10.0,NW,10.4,-,N/A,,Clear,310,2014-03-15 14:15:00
9:35 AM,35.6,32.0,87,30.06,10.0,NW,8.1,-,N/A,,Clear,310,2014-03-15 14:35:00
9:55 AM,35.6,30.2,81,30.07,10.0,NW,6.9,-,N/A,,Clear,320,2014-03-15 14:55:00
10:15 AM,37.4,30.2,75,30.08,10.0,NNW,5.8,-,N/A,,Clear,340,2014-03-15 15:15:00
10:35 AM,37.4,30.2,75,30.09,10.0,NW,5.8,-,N/A,,Clear,320,2014-03-15 15:35:00
10:55 AM,37.4,30.2,75,30.10,10.0,NW,5.8,-,N/A,,Clear,310,2014-03-15 15:55:00
11:15 AM,37.4,30.2,75,30.10,10.0,NW,6.9,-,N/A,,Clear,310,2014-03-15 16:15:00
11:35 AM,39.2,30.2,70,30.11,10.0,WNW,3.5,-,N/A,,Clear,300,2014-03-15 16:35:00
11:55 AM,39.2,28.4,65,30.12,10.0,NW,4.6,-,N/A,,Mostly Cloudy,310,2014-03-15 16:55:00
12:15 PM,41.0,32.0,70,30.12,10.0,NW,3.5,-,N/A,,Overcast,320,2014-03-15 17:15:00
12:35 PM,41.0,30.2,65,30.12,10.0,Calm,Calm,-,N/A,,Scattered Clouds,0,2014-03-15 17:35:00
12:55 PM,41.0,28.4,61,30.11,10.0,Calm,Calm,-,N/A,,Clear,0,2014-03-15 17:55:00
1:15 PM,41.0,28.4,61,30.11,10.0,ENE,4.6,-,N/A,,Scattered Clouds,60,2014-03-15 18:15:00
1:35 PM,42.8,28.4,57,30.11,10.0,NNW,4.6,-,N/A,,Scattered Clouds,340,2014-03-15 18:35:00
1:55 PM,42.8,28.4,57,30.10,10.0,Calm,Calm,-,N/A,,Scattered Clouds,0,2014-03-15 18:55:00
2:15 PM,42.8,28.4,57,30.10,10.0,NE,4.6,-,N/A,,Scattered Clouds,40,2014-03-15 19:15:00
2:35 PM,42.8,28.4,57,30.10,10.0,NNE,3.5,-,N/A,,Overcast,30,2014-03-15 19:35:00
2:55 PM,42.8,28.4,57,30.10,10.0,Calm,Calm,-,N/A,,Overcast,0,2014-03-15 19:55:00
3:15 PM,42.8,28.4,57,30.09,10.0,North,4.6,-,N/A,,Overcast,360,2014-03-15 20:15:00
3:35 PM,44.6,28.4,53,30.10,10.0,NNE,4.6,-,N/A,,Mostly Cloudy,30,2014-03-15 20:35:00
3:55 PM,42.8,28.4,57,30.10,10.0,NE,5.8,-,N/A,,Mostly Cloudy,50,2014-03-15 20:55:00
4:15 PM,42.8,28.4,57,30.10,10.0,NE,4.6,-,N/A,,Mostly Cloudy,50,2014-03-15 21:15:00
4:35 PM,42.8,28.4,57,30.10,10.0,NE,5.8,-,N/A,,Mostly Cloudy,40,2014-03-15 21:35:00
4:55 PM,42.8,30.2,61,30.10,10.0,NNE,11.5,-,N/A,,Overcast,20,2014-03-15 21:55:00
5:15 PM,41.0,32.0,70,30.10,10.0,NNE,12.7,-,N/A,,Mostly Cloudy,30,2014-03-15 22:15:00
5:35 PM,41.0,32.0,70,30.11,10.0,NNE,10.4,-,N/A,,Scattered Clouds,30,2014-03-15 22:35:00
5:55 PM,39.2,30.2,70,30.12,10.0,NNE,12.7,-,N/A,,Scattered Clouds,30,2014-03-15 22:55:00
6:15 PM,37.4,30.2,75,30.13,10.0,NNE,13.8,-,N/A,,Mostly Cloudy,20,2014-03-15 23:15:00
6:35 PM,35.6,30.2,81,30.14,10.0,NNE,15.0,-,N/A,,Scattered Clouds,20,2014-03-15 23:35:00
6:55 PM,35.6,30.2,81,30.14,10.0,NNE,15.0,18.4,N/A,,Clear,20,2014-03-15 23:55:00
7:15 PM,33.8,30.2,87,30.15,10.0,North,12.7,21.9,N/A,,Clear,10,2014-03-16 00:15:00
7:35 PM,33.8,30.2,87,30.16,10.0,NNE,11.5,-,N/A,,Clear,20,2014-03-16 00:35:00
7:55 PM,32.0,30.2,93,30.17,10.0,NNE,9.2,-,N/A,,Clear,20,2014-03-16 00:55:00
8:15 PM,32.0,30.2,93,30.18,10.0,NNE,10.4,-,N/A,,Clear,30,2014-03-16 01:15:00
8:35 PM,32.0,28.4,87,30.19,10.0,NNE,10.4,-,N/A,,Clear,30,2014-03-16 01:35:00
8:55 PM,32.0,28.4,87,30.20,10.0,NNE,9.2,-,N/A,,Clear,30,2014-03-16 01:55:00
9:15 PM,32.0,28.4,87,30.20,10.0,NNE,10.4,-,N/A,,Clear,30,2014-03-16 02:15:00
9:35 PM,32.0,28.4,87,30.19,10.0,NNE,12.7,-,N/A,,Clear,30,2014-03-16 02:35:00
9:55 PM,32.0,28.4,87,30.18,10.0,NNE,15.0,-,N/A,,Clear,30,2014-03-16 02:55:00
10:15 PM,32.0,28.4,87,30.18,10.0,NNE,13.8,-,N/A,,Clear,30,2014-03-16 03:15:00
10:35 PM,32.0,28.4,87,30.19,10.0,NE,12.7,-,N/A,,Clear,40,2014-03-16 03:35:00
10:55 PM,32.0,26.6,80,30.19,10.0,NE,16.1,-,N/A,,Clear,40,2014-03-16 03:55:00
11:15 PM,32.0,24.8,75,30.19,10.0,NE,17.3,21.9,N/A,,Clear,40,2014-03-16 04:15:00
11:35 PM,32.0,24.8,75,30.20,10.0,NE,15.0,-,N/A,,Clear,40,2014-03-16 04:35:00
11:55 PM,32.0,24.8,75,30.20,10.0,NNE,11.5,17.3,N/A,,Clear,30,2014-03-16 04:55:00